Wind_Speed
20 19 16 16 15 12 7 2 1 2 2 3 2 2 3 3 1 1 2 2 1 2 2 2 3 5 3 1 4 2 2 6 5 5 3 3 24 37 28 28 37 36 35 32 31 29 26 26 24 22 21 20 20 20 20 19 19 18 18 18 17 16 16 16 15 14 14 13 13 13 13 13 12 12 12 11 11 10 10 10 10 9 9 9 8 8 8 8 8 8 7 7 6 6 6 6 6
22 19 15 16 14 8 2 1 1 1 2 3 3 3 2 2 2 4 4 3 1 2 4 4 2 0 2 3 0 2 2 0 4 4 2 17 28 27 27 32 38 37 35 33 32 30 27 26 24 23 21 20 20 20 20 19 19 19 18 18 17 17 16 16 15 15 14 12 12 12 12 12 12 12 11 11 11 10 10 9 9 9 9 9 8 8 8 8 8 7 7 7 6 6 6 6 6
22 19 16 15 8 1 1 1 2 1 3 4 4 3 1 2 4 4 3 4 2 3 5 2 2 2 2 2 0 1 1 3 9 8 7 23 21 21 31 34 38 37 35 34 32 30 29 26 25 23 21 21 20 20 20 20 19 18 18 17 17 16 16 16 15 14 13 12 12 11 12 12 11 11 11 11 11 10 10 9 9 9 8 8 8 8 8 8 8 7 7 6 6 6 6 6 6
20 18 18 13 3 1 2 2 2 2 3 3 4 3 3 3 2 0 7 5 3 1 3 3 1 1 1 2 1 2 4 3 10 11 10 17 18 28 36 35 38 36 34 34 32 31 29 27 25 23 21 21 20 20 20 19 19 18 18 17 16 16 16 15 14 14 13 12 12 12 11 11 11 11 11 11 11 11 10 9 9 9 9 8 8 8 8 8 7 7 7 6 6 6 6 6 6
20 18 17 8 1 2 1 2 2 3 4 3 3 3 4 2 3 1 7 6 5 2 2 3 2 2 2 3 1 1 6 6 8 13 15 18 25 35 38 38 38 35 35 33 32 30 29 27 24 22 21 21 20 20 20 19 19 18 17 16 16 16 16 15 14 14 14 13 13 12 11 11 11 11 11 12 11 11 10 10 9 9 8 8 8 8 8 7 7 7 6 6 6 5 5 5 5
19 15 11 3 0 1 0 2 3 5 5 3 3 3 4 2 4 3 9 6 4 1 2 2 2 2 2 3 2 3 8 10 9 13 19 25 32 38 38 39 37 35 34 32 31 30 28 26 23 23 21 21 20 19 19 19 18 18 17 16 15 15 15 15 14 14 14 13 12 12 11 11 11 11 11 11 11 10 9 9 9 9 8 8 8 8 8 8 7 7 7 6 6 5 5 5 5
17 9 4 1 0 1 2 3 4 5 4 5 4 3 4 4 5 4 8 6 3 2 3 2 2 3 2 2 2 6 14 14 12 16 23 32 36 38 38 37 36 34 32 31 31 30 28 24 23 22 21 21 20 20 19 19 19 18 17 16 15 14 15 14 14 14 13 12 11 11 10 10 10 10 10 9 9 9 8 8 8 8 8 8 8 8 8 7 7 7 6 6 7 6 5 5 5
13 4 0 1 2 1 2 4 4 4 3 4 4 4 3 4 6 5 6 5 4 4 4 2 2 2 1 1 1 9 19 19 20 26 31 35 37 38 37 36 35 33 31 31 30 30 27 23 23 21 20 21 20 20 19 19 18 18 17 16 15 14 14 14 13 13 12 11 10 10 9 8 8 8 8 8 8 8 8 7 8 8 7 8 8 7 7 7 6 6 6 6 6 6 6 5 5
7 1 0 1 2 2 3 3 4 4 3 3 5 5 2 3 6 5 5 4 4 4 4 4 1 2 2 1 4 8 17 27 31 33 35 36 38 37 35 35 34 32 31 31 31 29 25 23 22 20 20 21 20 20 19 19 18 18 17 15 15 13 13 13 13 12 11 10 10 10 9 8 8 8 8 8 8 7 7 7 7 7 7 7 7 7 6 6 6 6 6 6 6 6 6 6 6
2 1 1 1 2 2 4 4 4 3 3 3 4 1 3 2 6 7 7 5 4 4 4 3 1 2 3 3 7 8 21 37 36 31 34 36 36 34 32 31 32 33 32 32 31 28 25 23 21 20 21 21 20 20 20 19 18 18 16 15 14 13 13 13 12 11 11 11 11 11 10 10 9 8 8 8 8 7 7 8 7 7 7 6 6 6 5 5 5 5 5 5 5 5 5 5 6
1 1 1 1 2 3 4 4 4 4 2 1 1 4 2 3 7 7 6 5 4 4 4 3 2 3 2 6 6 13 31 40 35 30 33 35 33 31 29 29 31 33 33 33 31 28 25 23 21 21 22 21 19 20 20 18 18 18 16 15 14 14 13 13 12 10 10 11 11 11 11 10 8 8 9 8 8 8 8 8 8 7 7 6 6 6 5 4 4 4 5 5 5 5 5 5 5
1 1 0 1 2 3 4 4 5 6 3 2 1 3 3 5 7 8 7 6 5 5 4 4 4 3 5 8 6 17 31 33 34 32 32 32 30 29 29 30 31 31 32 32 31 28 25 24 22 21 22 20 18 19 19 18 18 17 17 15 14 14 13 13 12 11 11 11 11 10 10 10 8 8 9 9 8 9 8 8 8 7 7 6 6 6 6 5 4 4 5 5 5 5 5 5 6
2 2 1 2 2 2 4 4 5 5 4 2 1 3 5 5 6 6 6 6 6 7 5 6 3 2 6 8 7 14 21 27 34 33 32 31 29 30 30 30 31 30 31 32 30 27 26 25 23 22 22 20 19 19 19 19 18 17 17 16 15 13 12 12 12 11 11 11 11 10 10 9 9 8 9 9 9 8 9 8 8 8 8 7 7 6 6 5 5 5 6 6 6 6 7 7 7
2 2 2 2 2 2 3 3 3 3 3 1 3 3 4 4 5 5 5 7 7 4 1 4 3 1 7 9 8 9 15 28 34 33 33 31 31 33 31 31 31 31 32 31 30 27 26 26 24 22 22 21 19 18 19 19 18 17 16 15 14 13 13 12 11 11 11 12 11 10 10 9 9 8 8 9 9 9 9 9 9 9 9 8 7 7 7 6 6 6 6 6 7 7 7 8 8
2 1 1 1 2 2 3 3 2 3 3 1 2 2 2 2 5 5 3 6 4 0 2 2 2 2 8 11 9 9 18 32 35 34 34 33 34 33 32 32 30 30 30 30 28 27 27 26 25 23 23 22 20 20 19 18 17 16 16 15 14 14 13 13 12 11 12 12 10 10 9 9 9 8 8 8 9 9 10 10 10 10 9 9 8 8 7 7 7 7 7 7 7 7 8 8 8
1 2 1 2 3 2 2 2 1 2 2 3 1 2 4 2 3 3 1 1 2 2 1 2 4 2 6 8 11 18 28 34 34 34 34 33 32 30 30 28 27 27 27 28 28 27 27 27 27 25 24 24 22 21 20 18 17 16 16 15 14 14 12 13 12 11 12 12 11 10 9 10 9 8 8 7 8 8 9 9 9 10 9 9 9 8 8 8 8 8 8 8 8 8 8 8 8
1 1 1 2 3 2 1 1 0 1 2 2 1 2 5 5 2 2 1 0 2 3 2 3 3 3 2 10 19 27 32 34 34 34 31 29 27 25 25 24 25 24 24 26 27 28 27 27 27 27 26 25 24 22 20 20 18 16 16 15 13 13 13 13 12 11 13 12 11 11 11 11 9 9 8 7 7 7 8 8 8 9 9 9 8 8 8 9 9 9 10 10 9 9 8 8 8
1 0 2 2 3 2 1 2 2 3 3 2 2 1 4 7 4 1 1 2 3 2 3 3 1 5 2 19 27 29 32 34 33 31 27 24 23 21 20 22 23 22 23 25 26 28 27 28 28 28 28 27 26 23 21 20 18 17 17 16 15 15 15 13 12 12 13 13 13 12 12 12 10 9 8 8 8 7 7 7 8 9 9 9 8 9 9 10 10 10 11 11 10 9 9 9 9
2 1 1 2 3 1 2 4 2 3 2 4 3 2 3 5 4 1 1 4 3 3 3 3 2 4 6 23 25 27 32 32 31 29 26 23 22 21 19 21 22 22 24 25 26 27 27 28 29 29 30 29 27 24 22 21 19 18 17 18 18 17 17 15 14 13 13 14 13 13 12 11 10 8 8 7 7 7 7 7 7 8 8 8 8 9 9 10 11 11 11 11 11 11 11 11 10
2 2 1 3 3 1 4 5 1 2 1 4 4 2 4 4 2 2 3 6 3 4 5 1 3 3 11 20 19 25 30 29 30 28 26 24 23 23 22 22 22 24 26 26 26 26 26 29 29 29 30 30 28 26 24 22 21 19 19 20 19 19 18 16 15 14 14 14 14 13 12 11 10 8 7 7 7 7 7 7 7 8 8 8 8 9 9 10 10 11 11 11 12 12 13 13 12
2 2 2 3 2 2 4 3 2 3 3 4 5 3 5 2 1 3 5 6 2 5 6 4 7 9 15 19 15 20 23 24 27 27 25 24 23 23 24 24 25 26 26 26 25 25 27 29 30 29 29 30 28 26 25 23 23 22 21 21 20 19 18 17 16 16 15 15 15 14 12 11 10 9 8 8 7 7 7 8 8 8 9 9 9 10 10 11 11 12 12 12 13 14 14 14 14
2 3 3 3 3 2 3 3 4 4 3 5 5 4 5 0 2 3 5 5 4 5 7 7 8 9 16 19 14 15 17 19 22 23 24 23 23 23 24 25 25 26 25 26 26 26 27 29 30 28 27 27 26 24 22 23 24 23 22 21 19 18 17 16 16 17 17 16 15 14 13 13 11 10 10 9 8 7 7 8 8 9 9 10 11 11 11 11 12 13 13 13 14 14 15 15 15
1 2 3 3 3 3 2 4 4 4 4 5 5 4 3 1 2 2 4 5 4 3 6 8 7 8 17 18 13 14 15 16 17 21 24 23 23 23 24 24 25 26 26 27 28 27 28 28 29 28 27 25 23 21 19 20 22 22 21 20 18 16 15 15 15 17 17 17 16 15 15 14 13 11 11 11 10 9 8 8 9 10 11 11 12 13 13 13 14 14 14 15 14 15 16 16 16
2 1 2 2 3 4 2 3 3 3 4 4 6 6 3 3 3 2 5 6 4 4 5 6 6 9 16 15 11 13 15 15 16 22 25 24 24 25 26 26 26 28 27 27 27 28 28 28 28 28 27 26 23 21 19 19 19 19 19 19 18 15 14 14 14 15 16 16 16 16 15 15 14 13 12 12 11 11 10 8 8 10 12 12 13 15 15 15 16 16 16 17 17 16 17 17 18
4 3 2 2 3 4 2 4 5 1 1 1 5 7 6 6 3 3 5 5 4 5 5 5 7 11 13 12 11 12 14 14 16 21 23 23 25 25 26 26 27 28 27 28 28 28 28 27 28 28 27 27 24 22 21 19 17 18 18 19 18 15 14 13 13 13 14 14 14 15 15 15 15 14 14 13 13 13 12 9 9 11 12 12 13 15 16 17 17 17 18 19 19 18 17 17 18
5 4 4 4 2 2 3 4 7 2 2 1 4 5 5 3 1 2 5 3 3 4 7 7 9 14 12 10 10 11 13 13 14 18 20 23 24 23 25 26 27 28 28 29 29 29 29 28 27 28 27 28 26 23 21 19 17 18 19 18 16 16 14 13 13 13 13 12 12 14 15 15 15 15 15 15 16 16 14 12 11 11 12 11 12 15 16 16 17 18 17 18 19 18 16 15 15
3 3 7 6 2 2 4 5 5 2 1 3 4 4 2 2 1 2 4 2 2 7 9 9 11 14 13 10 9 11 13 13 16 18 18 20 22 23 24 26 27 28 28 29 30 30 29 29 28 28 28 28 27 25 23 21 18 19 19 18 17 16 14 14 15 15 14 14 13 12 14 15 15 15 15 15 16 18 19 17 14 14 13 11 12 14 14 13 11 11 11 12 14 15 13 12 13
6 6 8 6 3 5 2 2 1 0 1 3 4 4 1 2 2 3 4 1 3 10 10 9 12 13 13 10 9 10 11 15 20 18 16 18 20 23 24 26 29 28 28 30 30 30 30 30 30 28 28 29 28 26 24 22 20 20 19 19 18 17 15 15 17 17 16 16 15 13 13 15 16 15 15 15 14 15 18 19 17 17 15 13 14 15 14 10 6 5 5 7 9 10 10 11 13
6 6 6 2 2 6 8 6 4 4 2 3 3 3 0 2 3 4 3 2 4 8 8 8 12 12 12 10 8 9 11 16 19 17 19 21 23 25 26 27 31 29 29 32 31 30 30 31 32 30 28 29 29 27 25 22 20 20 20 20 19 18 17 17 18 19 17 17 18 17 14 14 15 16 16 16 13 12 14 15 15 15 14 13 13 13 14 12 9 7 6 7 8 9 8 10 14
5 4 3 1 2 2 7 6 6 6 2 3 1 1 3 4 5 5 3 4 4 6 6 7 9 9 9 9 8 9 11 13 15 18 22 25 25 27 28 29 33 32 29 32 33 31 31 32 32 31 29 29 29 28 26 23 19 21 21 19 20 19 19 19 19 20 19 17 19 19 18 17 17 16 15 15 15 13 13 13 12 13 13 12 11 11 13 14 13 11 9 8 9 10 10 12 14
2 3 1 2 0 1 5 4 6 6 2 2 1 1 5 5 6 6 4 5 6 6 6 7 8 6 6 8 8 8 10 12 17 21 23 26 27 28 31 31 34 35 31 32 34 32 31 32 32 32 30 29 29 29 28 24 20 21 21 20 21 21 20 19 19 21 21 20 19 21 21 21 20 19 17 15 16 16 15 15 15 15 14 13 12 13 14 15 16 14 12 11 10 12 12 13 13
2 3 2 2 2 1 3 4 7 5 2 2 2 1 4 6 8 7 5 5 6 7 6 7 8 6 7 8 7 6 7 11 18 22 23 27 28 28 32 33 33 35 34 34 34 33 32 31 32 32 31 30 29 29 29 26 23 22 21 21 21 22 21 19 18 18 20 21 22 22 22 21 21 22 19 16 16 18 19 19 18 17 16 14 14 15 15 16 17 16 14 12 11 12 13 13 13
2 3 3 2 3 2 1 4 7 5 3 3 3 2 2 4 7 7 7 7 7 7 6 7 7 6 8 8 6 5 5 8 12 18 22 27 27 29 33 33 34 36 35 35 34 33 33 31 32 33 32 31 29 28 29 27 26 24 21 21 21 22 22 21 20 17 16 19 21 22 22 22 22 23 22 19 17 18 20 20 17 15 16 15 15 14 14 13 14 14 12 11 12 12 12 13 14
1 2 3 2 3 3 2 3 5 7 6 5 6 4 2 4 8 8 7 8 8 8 7 7 7 7 8 7 6 5 5 7 8 13 20 25 26 29 34 34 35 37 36 36 36 34 34 32 33 34 34 32 30 29 30 29 28 25 21 20 21 22 22 22 22 20 17 18 20 20 21 23 24 25 25 23 20 18 19 19 17 15 16 16 13 11 10 10 11 11 10 10 11 12 12 14 15
2 3 4 2 3 3 4 2 6 10 7 6 7 5 6 4 9 9 8 9 8 8 7 6 7 8 8 8 7 5 6 8 9 13 19 24 26 27 34 35 34 36 36 36 37 36 36 35 35 36 36 34 32 31 31 31 29 27 23 21 22 22 22 22 22 22 20 18 17 15 14 16 21 25 26 26 23 19 18 18 18 16 17 18 15 12 12 12 11 10 11 11 11 12 13 14 15
1 2 4 4 5 4 5 3 6 12 7 4 8 6 5 6 9 10 9 9 7 7 6 4 6 8 8 8 7 6 8 9 11 15 16 20 25 26 32 36 34 35 36 37 38 37 37 37 36 37 38 36 34 33 33 32 31 28 25 25 24 21 21 22 23 22 20 17 13 9 8 9 13 17 21 24 24 21 18 17 17 16 16 16 13 13 14 13 12 12 12 12 12 13 14 15 16
2 5 7 7 7 5 6 6 8 11 6 4 8 6 5 8 9 10 10 9 7 7 8 6 6 7 8 9 9 8 8 9 11 14 13 16 22 25 29 34 35 34 35 37 37 37 38 38 38 39 39 38 36 35 35 33 32 29 26 25 25 21 18 19 21 21 20 18 14 11 9 8 9 10 12 17 22 22 20 18 16 14 13 13 11 11 12 12 12 13 13 13 13 14 15 16 17
6 6 7 6 7 6 7 7 10 10 4 4 7 5 6 8 9 9 9 10 10 9 10 8 7 8 8 9 10 9 7 7 9 10 11 14 19 23 27 31 33 33 34 36 37 37 39 38 40 41 39 38 37 36 35 34 33 31 28 27 27 24 20 20 20 20 19 18 17 14 12 11 10 9 10 12 17 21 21 19 18 15 12 13 14 14 13 12 12 12 13 15 14 15 16 16 16
4 4 4 5 5 4 4 6 9 9 3 3 7 6 5 7 8 8 9 11 10 10 11 10 8 8 8 9 10 9 8 7 8 8 9 14 19 22 24 27 32 33 32 36 38 36 35 35 37 40 39 38 38 37 36 35 33 32 30 27 25 25 24 23 21 20 19 19 17 16 15 13 12 11 11 12 15 20 21 20 19 16 14 14 16 17 17 15 14 13 14 16 16 16 16 16 18
3 4 3 4 8 7 4 6 10 10 5 3 6 4 2 3 4 6 8 7 6 7 10 9 9 9 9 10 10 10 11 9 9 9 8 11 17 19 21 24 30 32 29 31 35 34 32 32 34 37 38 38 39 38 37 36 34 32 29 24 22 22 22 21 20 19 19 19 18 17 16 15 14 14 13 12 14 18 21 20 19 17 17 16 16 17 18 18 17 16 15 15 16 16 16 17 20
3 6 2 3 11 11 6 9 11 8 3 3 6 3 1 4 5 6 6 4 4 5 8 9 9 9 8 9 9 10 12 11 10 10 8 8 12 17 21 24 27 29 28 25 30 35 33 31 33 35 38 38 39 39 37 36 33 31 27 21 19 20 19 17 19 19 19 19 18 18 18 17 16 16 15 14 13 15 17 19 18 18 19 18 17 16 17 19 19 19 17 16 16 16 18 19 20
3 4 7 12 16 11 9 11 9 5 3 4 7 3 3 5 8 9 5 5 7 6 7 11 10 9 8 9 9 9 10 11 10 10 9 7 11 16 19 22 24 25 27 24 24 31 34 32 34 35 37 39 39 38 37 35 33 30 27 23 20 20 19 19 21 21 20 19 18 18 18 17 15 15 16 16 15 15 16 18 19 20 20 19 17 15 16 17 19 20 19 19 18 18 19 19 20
4 2 6 16 13 8 13 15 9 4 3 6 8 4 1 3 6 10 7 8 11 9 8 12 11 10 10 9 9 9 10 11 9 9 9 8 9 13 15 18 23 23 24 24 21 24 28 31 33 34 35 37 37 36 36 35 33 31 30 28 25 25 24 23 24 23 20 19 17 16 17 17 15 15 16 17 17 17 18 20 21 21 21 19 17 16 17 17 18 19 20 20 20 19 18 19 21
5 3 3 12 9 7 14 14 8 4 1 3 6 3 3 2 6 9 10 8 10 10 10 12 12 11 12 12 11 10 11 11 10 9 10 9 9 12 15 18 22 24 22 22 21 21 23 26 30 32 33 34 34 35 36 36 34 32 31 29 28 28 27 24 23 22 20 18 16 16 16 16 15 14 16 17 18 18 19 20 21 21 21 20 19 19 19 19 19 20 20 21 21 20 19 19 21
7 1 8 12 12 15 15 11 7 3 4 2 6 3 2 2 4 5 9 9 10 12 13 14 13 13 13 13 13 12 12 12 11 10 11 11 11 14 19 20 21 24 24 22 22 21 20 23 28 31 32 33 33 34 36 37 36 33 32 30 29 28 26 23 21 20 19 17 16 16 16 17 16 15 15 16 16 17 18 19 20 21 21 21 21 21 21 21 20 21 21 21 22 22 21 20 20
6 1 6 7 10 14 12 8 5 5 3 4 10 8 3 3 4 5 7 8 11 13 13 14 14 14 14 13 14 13 12 11 11 11 11 13 16 19 22 23 23 24 25 25 23 22 21 21 25 30 33 34 34 35 36 37 36 33 31 31 30 28 25 23 20 19 17 16 16 17 17 18 18 18 17 16 15 15 16 18 19 20 21 21 22 22 22 22 22 22 21 21 20 21 22 21 21
7 4 3 3 6 9 8 4 4 5 2 6 12 13 6 1 3 4 7 10 14 13 11 13 14 14 14 13 13 13 12 11 11 11 11 14 19 22 22 23 25 27 26 26 25 24 23 22 22 26 31 34 35 36 37 37 36 34 32 31 31 28 25 23 21 19 18 17 17 17 17 18 19 20 19 19 17 16 16 17 18 19 20 21 22 22 22 21 21 22 22 21 21 21 22 23 25
6 5 1 2 2 3 5 1 3 4 5 7 12 13 8 3 4 7 12 12 13 14 12 14 16 16 15 14 14 13 12 12 12 11 11 12 15 17 20 22 25 27 26 26 26 26 26 25 24 24 27 31 33 36 37 36 35 33 32 31 30 27 24 23 22 22 20 19 19 18 18 20 20 20 19 20 20 18 17 18 18 18 19 21 21 21 20 19 20 21 22 22 22 22 22 23 24
3 2 2 3 3 2 5 3 1 4 6 7 12 13 8 5 6 10 16 13 11 14 14 16 18 17 16 15 14 14 13 12 13 11 11 11 12 13 16 20 23 25 26 26 27 27 27 27 27 27 27 29 31 34 35 35 33 32 31 30 28 26 24 24 24 23 22 21 21 21 20 21 21 21 19 20 21 20 19 18 18 18 19 19 19 19 19 19 20 21 22 23 24 24 24 24 25
4 3 3 3 1 1 4 4 3 5 7 4 11 13 6 4 5 10 17 16 14 15 15 17 19 18 17 16 15 14 13 13 13 12 11 11 11 13 17 21 24 25 26 27 27 28 28 27 27 27 27 29 31 33 34 33 32 31 30 29 27 25 25 25 25 24 23 22 22 22 22 22 21 21 20 19 19 20 21 20 19 19 19 19 19 19 19 18 19 19 20 20 21 21 21 22 23
4 4 4 4 4 3 4 4 4 5 5 1 7 8 5 4 5 9 17 17 14 14 14 15 16 15 14 13 14 13 13 13 12 12 12 12 12 16 19 22 24 25 26 26 25 26 28 29 29 28 27 28 31 33 33 32 31 30 29 28 26 25 25 25 25 24 23 22 22 23 24 23 23 22 21 19 17 18 19 20 20 21 21 21 20 19 17 16 16 16 16 16 17 17 18 18 19
4 2 4 3 5 5 3 4 4 4 2 1 4 4 4 5 4 5 12 14 13 14 13 13 13 12 10 10 12 13 11 12 12 12 13 13 13 17 21 23 25 26 26 26 25 25 27 29 31 30 29 30 33 33 33 32 31 30 29 28 26 24 24 24 24 23 23 22 22 23 24 24 23 22 21 20 18 17 18 18 20 21 22 21 20 18 17 16 15 15 14 14 16 16 17 17 17
2 2 4 5 5 7 2 3 2 1 2 2 3 2 2 2 4 1 10 14 14 14 12 13 14 12 11 10 12 12 11 11 12 13 13 13 13 16 21 23 24 26 26 27 28 28 29 30 31 30 29 31 33 34 34 33 31 30 29 27 25 24 24 23 22 21 21 22 22 23 23 22 23 22 22 21 20 20 20 20 20 21 21 21 20 18 18 17 16 15 15 16 16 17 18 19 19
3 3 5 1 3 4 2 1 2 1 1 3 1 2 1 1 3 0 11 15 15 15 14 14 13 13 12 12 12 13 12 12 14 14 14 13 13 15 20 24 26 28 29 30 31 31 32 32 31 30 29 30 32 33 33 32 31 30 29 27 25 24 23 21 21 21 21 22 23 25 25 24 23 23 22 23 23 23 23 23 23 24 23 22 21 21 21 19 17 15 16 18 19 19 19 20 19
7 5 3 3 2 0 1 2 3 2 2 2 3 1 1 3 3 3 12 16 16 16 14 14 14 14 13 12 13 14 12 10 12 13 12 12 13 15 21 24 25 28 29 31 32 31 31 32 31 31 29 29 30 32 32 32 31 30 28 27 26 25 24 22 21 22 23 25 26 27 27 27 26 24 24 24 24 25 25 25 25 25 25 24 23 23 22 20 18 17 17 18 18 18 18 18 17
8 5 0 1 3 3 2 3 4 3 3 2 1 2 2 4 5 7 13 15 17 17 14 13 15 15 13 12 12 13 12 10 10 12 12 13 14 17 23 26 26 27 29 30 31 30 30 31 31 30 28 26 28 30 32 32 31 30 29 28 27 25 23 22 22 24 26 27 28 28 28 29 29 28 27 25 25 25 27 27 27 26 26 26 25 23 22 20 19 18 18 18 19 19 18 18 18
7 5 1 2 2 2 2 3 2 3 3 3 2 2 3 5 4 8 12 13 16 17 14 13 14 15 14 13 13 12 11 10 10 11 13 13 14 18 23 26 26 26 26 27 29 29 30 30 30 29 26 25 26 29 31 32 32 31 30 29 28 27 24 23 24 26 28 28 28 28 28 30 32 32 30 28 27 28 28 27 24 22 22 22 22 21 20 19 19 20 21 22 22 20 18 18 19
8 5 4 5 4 2 2 4 3 2 3 4 4 2 3 5 2 8 11 10 12 15 16 14 14 15 15 14 14 13 10 10 11 11 12 12 12 14 18 21 22 22 23 26 28 28 28 28 28 27 25 25 27 30 32 33 33 33 33 31 29 27 25 24 24 25 26 26 26 25 25 28 30 32 32 31 29 27 23 19 16 15 15 16 17 18 18 19 20 21 22 22 21 19 19 20 21
Wind_Direction
175 169 163 157 147 145 135 76 175 204 217 269 241 224 243 195 192 225 212 150 136 218 166 70 118 149 119 186 193 209 201 174 179 159 207 167 145 151 159 163 161 159 160 161 161 164 167 166 163 161 163 162 162 159 156 154 152 153 153 154 153 153 152 149 149 151 152 150 146 142 141 141 139 136 132 130 130 129 128 127 129 131 135 140 144 145 145 143 144 146 148 153 157 159 159 163 164
177 169 155 151 145 139 126 20 218 187 195 258 242 214 233 162 193 229 208 120 322 335 70 70 43 250 2 346 211 319 298 198 134 128 96 132 137 148 160 163 160 161 161 160 162 165 165 163 163 162 163 161 161 160 157 155 154 155 155 156 156 155 154 152 153 154 153 150 146 143 142 143 141 139 134 132 134 134 134 133 134 138 141 144 146 146 146 146 146 149 151 156 161 166 171 176 175
176 168 151 144 138 122 109 102 251 213 204 244 247 216 170 178 212 233 98 81 315 21 77 106 358 348 346 327 220 165 190 54 115 108 114 139 138 151 162 163 161 162 161 160 162 164 163 163 164 163 162 162 163 162 158 156 156 156 157 157 157 157 158 157 156 154 150 150 147 144 144 145 144 141 137 136 138 138 139 140 141 143 145 146 147 147 147 147 148 150 152 156 161 165 171 178 183
169 165 154 141 128 245 150 169 232 220 224 233 262 241 198 205 198 167 87 100 251 89 140 154 53 323 277 259 262 128 141 99 127 124 133 153 151 154 160 162 161 161 159 159 162 163 164 165 164 163 163 165 165 162 158 157 157 157 158 158 158 158 158 157 155 151 150 152 149 146 147 148 147 144 142 140 140 141 141 142 145 147 148 148 148 148 149 150 154 158 159 163 167 169 170 173 180
158 158 157 139 134 204 164 212 208 219 226 189 248 250 217 177 102 160 107 133 217 197 205 136 126 219 233 251 280 136 137 112 126 130 133 148 152 154 159 161 160 158 158 159 161 164 165 164 164 164 165 166 166 163 159 158 159 158 158 159 160 159 157 156 155 153 152 153 150 149 149 148 147 145 144 143 143 144 144 144 147 149 149 151 152 152 154 157 161 165 167 171 175 179 179 181 182
147 149 155 124 62 212 248 231 218 231 236 181 235 251 220 143 121 181 119 142 209 139 267 166 145 171 215 243 204 168 139 129 134 132 130 141 152 156 158 158 158 157 158 159 163 165 164 164 164 165 166 167 166 162 160 160 160 159 159 161 161 159 158 158 155 153 151 149 149 149 149 149 147 144 143 145 148 150 151 150 151 152 152 155 159 161 162 165 168 171 175 178 181 184 187 189 190
143 139 149 122 218 265 238 236 232 242 247 200 228 253 212 128 126 177 135 152 174 145 251 232 154 136 211 233 189 153 138 135 130 130 132 140 151 156 156 156 155 156 158 161 165 165 163 165 165 166 168 167 165 163 162 160 161 160 161 162 161 160 159 158 156 154 150 149 151 152 152 152 149 148 146 149 154 158 160 158 159 160 159 159 163 166 167 170 172 176 179 184 186 187 193 195 200
141 124 167 198 207 221 233 255 240 230 241 205 236 256 222 122 136 184 165 168 163 174 211 197 184 128 221 285 143 143 135 131 125 129 134 141 150 153 155 154 154 156 159 162 165 163 162 166 166 168 169 167 166 164 163 162 163 162 163 162 161 162 161 160 160 158 154 155 158 158 160 153 151 156 157 160 166 166 162 163 167 169 165 159 162 165 166 173 176 181 183 184 185 185 192 195 201
129 59 33 210 221 227 238 260 251 235 237 223 250 260 296 109 142 168 168 164 158 166 170 172 218 137 212 337 118 135 126 126 128 132 138 145 150 151 152 153 154 156 161 164 165 162 163 167 167 169 170 168 167 166 164 163 166 164 163 164 165 165 163 163 162 163 161 161 163 163 163 161 165 170 171 171 173 171 166 174 178 175 168 160 162 165 167 175 176 181 182 181 181 181 189 192 196
97 357 157 257 232 248 257 252 255 246 236 238 255 351 37 103 144 170 167 141 150 143 143 145 47 174 201 95 110 125 124 127 129 132 142 149 149 148 150 153 156 158 162 165 164 162 165 168 168 170 170 169 168 167 165 165 167 165 165 165 167 167 165 164 165 168 166 165 168 169 169 174 182 180 175 174 176 178 179 184 190 183 177 173 169 173 177 178 179 181 181 182 187 187 190 195 198
18 333 162 262 236 246 257 257 262 262 260 250 293 69 85 170 142 176 172 124 154 129 125 133 126 193 140 90 97 121 126 129 130 134 144 148 146 147 149 155 161 163 163 164 163 162 166 169 169 171 170 170 170 168 167 168 169 168 167 167 169 169 168 167 168 171 173 175 176 178 178 178 185 180 172 176 180 183 190 191 195 194 190 193 186 188 192 191 193 192 195 196 200 200 202 205 206
158 234 179 235 230 238 249 260 265 271 274 214 161 102 152 178 154 176 168 136 152 128 150 190 166 187 116 101 109 125 127 130 135 139 144 144 145 150 152 157 163 165 163 163 162 162 167 169 170 171 171 171 171 170 169 170 171 170 169 169 173 174 173 172 173 179 183 185 182 181 180 176 180 180 173 180 188 186 194 197 200 202 200 206 201 202 205 206 204 205 213 214 217 219 225 224 221
166 171 169 239 221 219 248 261 268 280 276 229 119 128 152 183 178 169 155 140 146 139 177 202 181 193 116 108 124 130 132 135 137 141 143 142 145 151 153 156 162 164 162 162 161 163 169 169 171 172 172 172 172 173 173 173 174 173 172 173 176 177 179 179 181 188 190 184 181 180 177 180 184 185 180 184 192 192 197 200 204 206 206 207 205 208 210 212 210 213 219 220 226 229 235 238 237
170 148 148 238 257 230 238 253 269 267 256 225 69 110 152 188 163 141 152 148 151 147 175 186 187 207 127 122 136 139 139 140 139 141 142 142 145 149 152 156 161 161 161 161 161 166 169 170 172 172 173 173 174 177 176 176 177 176 176 177 176 179 182 186 191 198 195 182 184 187 182 189 191 188 186 187 192 196 202 203 205 207 206 206 205 209 210 212 213 218 225 227 234 239 244 246 247
155 79 138 233 267 255 226 228 250 241 241 102 71 95 132 171 130 123 164 148 144 80 31 145 265 277 147 143 148 151 146 142 140 141 141 143 146 148 151 154 156 158 160 162 163 168 169 171 172 173 175 173 176 182 179 179 180 179 180 181 180 183 188 193 198 202 194 184 190 195 189 194 195 191 192 192 192 197 203 205 209 208 206 208 207 211 211 215 219 224 230 236 242 248 253 255 255
111 79 192 242 242 242 227 223 167 230 255 88 112 150 124 93 94 94 129 134 98 110 111 205 251 243 146 142 147 147 145 143 141 141 139 139 140 142 146 149 151 155 161 163 166 170 170 172 173 175 177 174 180 185 182 181 182 183 182 184 185 187 195 198 202 203 191 187 194 197 196 201 199 195 199 200 194 194 201 205 210 208 208 209 210 215 216 220 225 229 234 237 243 247 251 253 252
77 80 223 257 252 255 271 253 128 282 337 78 138 167 126 97 79 40 58 66 80 129 218 242 231 273 123 136 147 146 143 142 139 137 135 134 134 135 140 144 148 154 162 167 169 171 172 175 175 178 179 176 182 186 184 183 182 187 185 187 188 189 200 202 203 202 192 192 197 198 200 204 202 195 197 198 197 197 202 206 209 211 211 210 211 216 219 225 229 233 237 240 243 246 248 247 245
114 122 199 233 254 259 294 295 296 334 10 130 165 149 128 114 123 22 36 96 78 128 257 283 301 308 150 142 148 145 142 142 139 137 137 136 137 139 143 148 152 157 164 170 173 174 174 177 178 181 181 178 183 187 187 185 183 189 188 188 193 193 203 204 205 207 197 194 196 196 198 200 200 196 195 197 201 204 203 208 211 215 215 213 215 217 223 229 233 237 240 244 246 245 244 243 241
158 193 180 226 229 168 208 259 304 20 46 157 139 87 115 103 114 191 200 139 130 162 246 302 2 310 148 145 149 143 143 144 142 142 141 142 145 147 151 154 158 160 165 171 176 178 179 180 182 183 182 179 184 189 191 188 185 193 190 191 200 201 206 207 206 211 201 194 190 189 191 191 194 195 196 198 204 210 211 213 214 217 219 218 220 223 229 231 234 241 242 244 244 243 242 242 243
188 174 204 245 220 186 219 239 11 73 225 144 105 53 82 74 110 180 163 135 154 190 211 207 140 207 152 148 149 142 145 146 144 147 145 148 152 153 156 159 163 166 169 173 176 181 184 184 183 184 182 181 185 190 192 189 187 197 195 194 205 206 208 208 205 206 196 190 186 183 185 186 190 191 192 197 204 210 211 215 216 218 222 223 226 228 228 228 234 238 241 243 242 242 242 245 248
180 174 217 240 206 231 219 203 126 163 208 135 108 86 89 75 208 169 147 139 195 217 220 193 172 185 152 150 150 143 148 145 145 149 148 152 157 158 161 163 167 169 170 173 176 181 187 187 183 182 183 185 189 192 194 193 191 198 199 199 208 209 210 210 204 200 191 186 185 184 187 189 192 191 191 193 198 207 213 217 217 216 220 219 221 226 224 225 232 235 238 241 242 244 246 248 250
168 215 221 204 196 233 197 162 164 175 179 125 106 97 96 174 241 164 162 176 214 209 212 192 188 188 152 151 150 145 150 145 146 151 152 157 160 162 163 164 167 167 169 173 177 183 188 188 184 181 183 188 192 194 197 199 199 202 203 205 211 213 213 213 208 201 194 188 186 188 191 194 196 196 198 199 197 206 219 225 224 222 227 225 222 227 229 230 233 236 240 242 245 249 251 252 252
175 242 227 198 222 246 189 159 173 167 164 142 125 117 97 259 245 187 201 224 240 213 202 184 201 195 152 151 150 147 153 148 148 151 156 160 161 163 162 164 166 166 171 175 179 184 187 188 185 181 183 189 191 194 197 199 202 205 206 207 209 209 208 210 208 203 198 192 188 190 195 199 202 204 207 210 207 207 217 228 235 239 242 240 235 235 238 239 239 242 246 248 249 252 255 256 256
177 227 228 196 232 251 225 130 138 158 169 149 128 131 144 187 186 194 231 238 238 218 204 187 203 183 151 150 152 149 155 153 149 152 158 162 162 163 163 166 168 169 172 176 180 184 187 188 186 182 185 191 192 196 199 200 203 205 205 204 200 196 197 199 198 198 197 195 192 194 200 205 209 215 217 217 215 215 218 225 241 250 253 254 249 245 247 249 249 251 253 255 254 253 255 258 260
199 205 171 146 227 261 280 89 84 66 236 140 133 147 170 182 158 188 229 231 236 214 193 197 183 164 151 153 154 148 156 156 151 155 159 163 163 160 163 167 168 170 172 176 181 184 186 187 185 184 188 194 196 198 201 204 205 202 200 197 194 194 198 197 193 196 196 195 197 198 204 209 213 221 228 231 229 226 222 222 240 252 254 258 256 253 254 257 259 259 259 259 258 257 257 259 262
207 192 130 123 221 279 332 65 84 36 316 195 163 159 173 186 121 246 229 212 241 208 183 191 162 153 156 158 155 150 156 158 158 161 159 164 165 161 163 166 169 172 173 177 181 184 186 185 184 185 189 195 198 200 204 204 200 196 196 193 194 198 202 202 202 205 204 202 202 202 208 213 217 224 233 241 240 237 233 227 232 239 242 252 259 259 260 265 267 263 259 257 256 254 255 258 258
160 122 89 79 48 38 358 22 59 34 318 242 202 162 171 207 199 241 233 228 194 176 184 181 152 155 163 159 160 154 157 162 164 166 163 166 168 166 167 167 172 176 174 176 181 184 185 185 185 185 189 194 197 202 205 204 198 196 196 195 198 202 205 208 212 214 214 215 213 211 215 216 219 225 234 244 247 246 242 239 237 235 238 249 261 263 263 266 263 255 250 247 246 244 252 263 261
114 111 92 85 94 109 106 49 11 295 124 247 212 142 125 187 196 244 224 239 134 159 174 164 153 164 165 161 168 158 161 169 169 172 171 173 174 171 172 170 174 178 176 178 181 182 184 186 188 186 188 193 197 204 206 205 203 201 201 202 204 208 212 216 221 222 224 228 227 223 221 218 219 223 230 239 248 248 243 245 246 240 242 252 260 263 264 259 240 238 252 250 247 249 264 277 279
125 123 98 118 157 141 149 153 199 210 162 236 213 113 84 202 221 249 197 114 95 136 148 151 159 169 167 167 172 164 170 175 174 179 177 177 179 176 176 176 176 178 179 181 182 182 184 188 189 189 190 193 198 204 206 206 206 206 207 209 209 211 217 223 227 226 229 237 235 230 227 224 224 224 227 232 236 235 234 240 241 237 241 250 256 262 264 258 244 252 271 266 261 268 278 279 286
134 114 80 100 312 192 162 154 183 191 206 248 225 126 232 236 233 237 174 129 110 118 133 154 161 168 172 170 171 171 176 178 177 182 182 179 181 179 178 179 178 180 181 181 183 184 185 187 190 191 192 195 197 201 205 205 203 205 209 212 210 209 214 222 226 225 229 237 235 232 234 234 229 225 226 229 230 227 229 234 231 231 238 243 251 263 269 260 249 255 269 268 265 271 278 279 287
135 112 119 155 343 237 166 165 170 170 232 230 103 180 215 220 225 225 184 146 137 136 149 164 163 169 177 171 170 173 179 186 181 182 184 182 181 180 179 180 181 181 181 181 185 187 186 187 190 192 194 196 195 197 203 206 202 199 205 210 210 210 213 216 219 220 224 230 230 232 239 242 235 228 226 230 234 234 235 236 235 237 240 245 258 272 279 269 260 263 264 263 268 273 278 283 292
165 151 255 208 184 228 169 188 180 170 215 178 145 203 205 204 213 214 181 154 151 154 161 170 170 172 179 178 174 172 182 192 185 182 185 185 183 180 180 181 181 183 182 183 188 188 186 188 191 193 195 196 194 195 200 205 203 198 202 210 211 214 217 216 216 219 223 224 227 232 239 244 238 232 230 233 237 238 238 239 239 241 241 246 260 272 281 276 266 260 250 250 264 274 279 284 291
200 181 244 221 175 217 201 193 193 179 143 169 216 212 184 198 203 200 177 165 163 163 170 175 174 178 183 183 180 178 185 194 191 186 186 188 186 180 181 181 181 185 184 184 188 187 185 187 192 194 196 196 194 195 199 204 205 201 204 209 211 215 219 221 221 221 224 224 227 233 240 246 243 237 236 238 240 240 239 240 239 235 236 245 262 274 280 274 259 248 239 243 257 267 276 281 286
208 199 233 246 180 186 200 184 187 178 159 183 212 224 245 196 181 186 182 175 171 174 181 176 174 184 187 184 185 189 193 194 199 196 189 191 190 182 181 183 183 186 186 185 187 187 186 187 191 196 198 197 195 195 198 201 203 203 206 207 210 214 219 223 224 224 227 231 235 240 246 249 246 243 242 239 239 241 239 240 242 238 239 249 262 273 273 261 246 241 244 249 256 267 279 282 286
119 182 212 233 187 197 217 205 169 173 185 190 183 222 264 200 169 179 185 180 179 186 186 173 174 183 187 187 188 192 202 202 202 204 195 192 193 183 180 184 185 185 187 187 188 188 187 188 192 196 198 198 197 198 198 199 201 202 205 208 212 216 221 224 225 227 230 233 236 239 243 244 243 246 247 241 237 239 238 238 242 244 248 255 260 263 264 257 249 253 263 266 269 278 285 284 286
13 264 238 198 181 215 216 201 167 166 177 191 179 205 236 185 173 177 183 183 182 191 190 171 172 185 189 186 190 193 200 207 205 205 201 196 196 187 180 185 186 185 188 188 188 189 188 188 191 195 198 198 198 199 198 198 199 202 205 208 212 215 219 221 222 226 229 229 228 228 227 230 235 241 246 244 240 239 240 239 242 247 251 255 258 260 261 261 263 269 272 276 282 287 287 283 284
254 293 272 208 178 207 207 189 177 166 161 201 198 204 196 179 180 178 178 184 184 191 197 191 177 186 192 188 191 195 197 211 212 207 208 206 203 193 182 184 186 186 188 189 189 190 190 190 191 194 197 197 196 196 196 197 197 199 202 204 208 209 208 211 216 222 226 226 228 235 241 241 239 236 240 242 240 240 242 241 241 245 249 252 256 263 267 270 275 279 279 281 286 286 285 283 285
209 254 262 205 178 197 200 178 173 172 161 197 197 205 200 180 180 180 174 182 191 194 199 202 190 185 194 194 192 191 197 216 221 214 213 215 213 201 187 183 187 187 187 190 191 193 193 191 192 195 195 193 194 195 194 195 197 196 198 203 209 212 212 214 218 224 228 232 235 240 248 254 254 248 240 238 240 241 241 240 239 241 246 253 257 262 271 276 277 280 280 279 279 279 278 279 284
199 235 223 178 182 182 180 164 166 178 180 185 183 189 203 184 181 188 181 185 192 194 198 202 195 188 193 198 194 190 197 210 218 220 214 214 215 208 195 186 188 190 189 191 193 195 196 193 194 195 193 193 194 195 193 194 197 199 203 208 211 214 218 222 227 233 237 239 240 241 246 250 256 257 250 241 239 240 240 239 240 243 250 260 262 261 265 271 275 277 276 272 271 271 270 274 282
159 180 181 176 183 170 168 168 171 192 200 156 157 160 184 172 183 212 206 197 192 194 202 204 199 195 194 196 193 190 197 205 213 218 213 209 211 207 199 191 190 192 191 192 194 196 198 197 194 193 193 194 195 196 196 198 201 206 209 212 213 215 220 224 228 234 239 241 241 242 244 246 254 261 260 253 242 238 237 240 244 248 254 265 269 263 261 265 270 275 276 271 266 265 269 277 284
186 174 171 203 194 188 181 161 166 190 210 126 123 96 313 183 187 224 222 203 212 210 205 211 212 207 198 194 194 192 199 204 207 214 211 202 202 199 196 193 192 195 194 192 195 198 200 198 194 194 195 196 198 198 200 202 204 206 206 207 208 213 219 222 222 227 232 237 240 241 241 243 251 259 262 259 249 239 237 240 247 252 258 266 267 263 262 263 266 270 273 272 268 266 271 278 280
263 181 180 197 197 188 158 146 148 160 229 198 143 111 280 209 190 211 207 188 215 218 206 215 217 209 202 196 197 196 201 206 206 212 209 194 193 195 195 189 188 197 200 194 191 195 199 197 192 194 196 196 198 200 201 203 204 203 200 197 198 203 209 213 217 223 227 232 237 239 238 239 250 260 259 255 252 248 246 247 251 257 263 266 264 263 263 263 264 266 268 269 270 272 273 272 273
284 279 201 194 188 168 154 151 148 156 218 206 168 147 256 219 208 211 194 192 211 212 210 218 215 207 204 200 199 195 199 205 204 209 208 195 188 192 197 191 184 191 202 200 188 183 190 193 191 191 193 194 197 199 200 202 202 202 200 200 202 204 206 211 218 224 228 232 235 236 237 241 254 260 254 249 250 254 255 256 257 260 263 264 264 264 265 266 268 269 269 269 270 272 270 265 269
253 317 149 160 151 173 173 160 166 185 107 164 189 166 102 208 232 204 180 192 215 215 215 220 215 208 202 201 202 196 196 199 197 203 206 200 189 188 197 198 190 188 193 199 195 183 179 185 192 193 192 194 197 199 202 203 203 202 203 205 208 209 212 218 224 227 229 232 235 238 241 247 256 255 245 244 250 256 259 257 256 256 257 260 262 264 267 269 271 273 272 270 269 269 267 266 270
252 86 115 142 166 187 182 169 173 155 76 145 222 204 108 252 251 174 164 189 217 220 216 215 212 207 201 201 203 199 196 194 192 195 201 202 195 192 196 200 198 192 189 194 199 199 190 183 188 193 194 195 198 201 204 205 206 206 207 208 210 213 219 225 228 226 227 230 237 242 244 246 248 246 241 243 248 253 256 255 254 254 256 257 259 262 266 268 270 272 273 273 272 270 269 268 266
261 83 126 165 195 190 180 178 152 100 97 207 216 196 157 274 246 155 155 194 215 218 215 211 209 204 199 200 202 200 197 194 193 193 196 202 199 197 199 200 201 199 196 198 201 206 206 196 190 191 195 197 200 203 205 206 208 209 210 210 211 215 221 225 226 225 227 230 235 240 243 245 245 244 244 243 241 243 250 254 255 256 256 257 258 260 264 266 267 270 274 276 275 273 272 267 264
269 291 211 189 207 186 178 188 117 104 221 236 214 197 169 262 258 182 180 204 204 202 207 207 205 202 199 200 200 198 198 196 196 193 194 200 201 201 200 200 203 203 202 206 210 213 215 216 210 202 200 201 202 204 206 207 208 210 211 212 214 218 221 222 222 223 225 229 233 238 244 247 246 246 247 244 239 239 246 253 256 257 258 257 258 260 262 264 266 269 274 277 277 276 272 268 267
252 275 293 32 293 156 135 146 90 139 229 237 213 200 180 209 254 212 211 215 195 188 195 195 196 199 197 198 197 196 197 196 195 193 193 196 199 201 200 201 205 204 204 207 213 217 218 220 223 220 213 207 204 204 205 206 207 209 212 214 217 220 223 222 221 224 227 231 237 241 246 249 247 246 248 247 243 242 245 250 253 253 255 255 255 258 261 264 268 272 275 277 279 279 274 269 265
221 255 59 49 312 48 116 173 177 185 235 227 191 188 195 228 239 212 211 212 192 188 189 187 191 193 193 194 193 194 194 194 195 193 190 190 194 197 198 201 204 205 206 206 209 213 215 216 218 221 220 212 205 203 203 204 206 209 213 217 220 223 224 224 225 228 233 238 243 243 244 247 247 247 250 251 248 246 247 249 251 250 250 253 256 258 262 266 270 273 277 278 279 277 274 270 264
198 218 122 128 223 89 146 195 201 210 250 241 168 175 207 262 258 216 205 200 191 188 184 185 189 188 187 190 188 188 191 191 193 193 189 188 191 195 196 198 202 205 206 204 206 209 210 212 214 217 217 211 205 202 201 203 206 211 216 220 223 224 224 226 229 234 240 244 245 244 244 246 248 250 255 259 256 251 250 250 251 250 249 251 255 260 265 267 268 271 274 277 277 277 276 272 268
205 194 138 156 182 153 178 197 183 208 249 271 148 171 206 218 234 215 200 194 185 183 184 185 190 187 180 184 185 185 189 190 192 192 192 190 188 193 196 197 201 205 205 202 203 205 206 209 212 213 212 206 202 200 200 204 210 214 219 223 225 225 226 229 233 239 244 248 249 247 247 248 251 254 258 263 262 256 254 253 251 251 252 253 255 258 258 256 258 263 268 273 276 278 277 274 272
242 167 117 188 192 166 190 200 185 189 209 159 162 194 222 210 245 216 186 184 178 179 182 179 186 186 171 177 187 187 188 190 190 190 193 193 189 192 195 197 199 202 201 199 200 201 201 204 208 210 209 203 199 200 203 208 214 217 220 223 225 226 227 231 236 243 247 250 251 250 250 251 253 256 259 261 259 257 257 256 255 255 255 253 251 249 244 244 249 257 265 272 275 276 276 276 276
234 167 191 233 182 154 171 261 286 74 125 246 207 214 282 278 304 238 159 169 178 178 176 175 183 180 172 182 190 189 190 189 190 191 191 192 190 192 197 198 198 198 197 197 199 200 199 200 202 201 201 198 197 201 205 209 214 217 219 221 222 224 227 232 239 246 250 251 250 250 252 254 254 257 259 259 258 258 258 256 254 253 250 246 245 241 239 243 251 259 265 268 270 270 271 273 276
173 204 218 241 93 111 106 222 304 46 177 277 247 177 229 242 297 325 150 165 178 179 175 175 178 175 179 189 190 191 193 189 192 192 189 191 191 192 197 199 197 196 195 195 197 199 199 198 196 194 195 197 199 202 206 209 212 215 218 219 222 225 230 236 243 246 250 251 250 250 252 253 255 258 261 262 262 262 262 259 255 251 245 242 242 240 240 245 252 260 267 269 269 269 268 270 272
210 218 176 99 90 323 25 178 206 198 193 292 336 296 221 199 228 167 160 173 178 177 176 171 174 179 184 188 188 192 194 189 191 191 189 192 192 192 196 198 197 195 194 194 195 195 195 196 196 196 198 200 203 205 207 208 211 214 219 222 225 229 234 240 243 246 250 252 252 252 253 254 256 258 258 259 261 263 264 263 261 254 244 241 243 242 243 250 256 260 263 265 267 267 267 268 268
239 252 287 129 189 197 216 196 177 183 191 180 297 295 247 229 221 171 171 181 175 173 175 171 177 185 185 182 186 192 195 191 187 189 191 192 192 195 196 196 196 194 194 195 194 193 195 198 199 199 200 200 203 207 208 208 211 216 220 223 227 231 237 243 246 248 250 252 254 254 254 257 258 257 256 255 256 260 263 265 266 260 249 244 244 245 250 255 257 257 258 261 265 265 264 265 267
234 245 223 224 245 221 241 249 171 153 164 159 162 207 247 253 221 166 171 179 173 167 166 170 182 188 186 185 187 190 193 191 185 186 191 192 193 195 196 196 197 196 195 195 194 193 195 198 199 200 202 203 206 209 209 209 211 216 220 223 226 229 234 240 245 249 252 253 256 257 258 260 257 254 255 254 254 260 265 265 263 257 250 247 247 251 256 258 258 261 265 267 268 265 262 264 267
204 206 188 205 228 228 264 290 290 141 139 157 152 154 260 269 208 154 156 160 163 161 162 173 187 189 187 190 190 187 188 189 185 185 186 188 191 192 193 195 194 193 193 193 194 193 193 197 201 204 206 208 209 210 209 210 213 216 219 222 225 227 230 235 243 251 256 259 261 262 263 265 262 258 257 255 256 261 262 257 252 250 249 250 253 257 261 266 270 272 272 270 268 266 268 269 269
Height
777 779 781 784 784 786 788 790 806 808 808 818 811 806 796 783 785 787 787 785 785 780 773 773 773 772 777 782 781 779 778 782 785 796 800 777 769 775 777 782 785 788 791 794 796 799 801 803 804 806 807 808 808 810 811 812 813 813 814 815 815 816 817 817 817 818 818 818 819 819 819 819 819 819 819 819 819 819 820 820 820 821 821 821 822 822 822 823 823 823 824 824 824 824 825 825 825
776 780 781 784 784 788 792 792 810 813 813 822 809 800 792 782 786 787 786 786 785 778 772 774 774 772 772 772 773 778 778 771 769 775 777 771 775 778 779 782 785 788 791 794 797 799 801 803 805 806 807 808 809 810 811 812 813 814 814 815 816 817 817 818 818 818 818 819 819 819 819 819 820 819 820 820 820 820 820 820 821 821 821 821 822 822 822 822 822 823 823 823 824 824 824 825 825
777 779 781 785 786 789 793 798 812 815 817 820 805 791 786 786 787 783 783 784 780 777 776 774 776 774 774 777 775 780 781 769 765 769 773 774 775 778 781 783 785 789 791 795 797 799 801 803 805 806 807 808 809 810 812 812 813 814 815 815 816 817 818 818 818 818 819 819 819 820 820 820 820 820 820 820 820 820 820 821 821 821 821 821 822 821 822 822 822 822 823 823 823 824 824 825 825
778 780 781 783 790 793 797 805 810 812 816 814 802 787 782 786 783 780 783 782 775 777 778 776 780 775 776 783 775 776 779 770 765 765 772 775 774 777 780 783 787 789 792 795 797 800 802 803 805 806 808 808 809 811 812 813 813 814 815 816 817 817 818 818 818 819 819 820 820 820 820 820 820 820 821 820 821 821 821 821 821 821 821 821 821 821 822 822 822 822 822 823 823 823 824 824 825
779 781 782 783 793 795 797 804 804 808 808 802 798 786 780 782 781 780 781 779 773 777 777 775 781 775 775 778 772 776 775 770 767 762 767 774 775 778 780 784 787 790 794 796 798 801 802 804 805 807 808 808 810 811 812 813 814 815 816 816 817 818 818 818 819 819 820 820 820 820 821 821 821 821 821 821 821 821 821 821 821 821 821 822 822 822 822 822 822 822 822 823 823 823 824 824 825
780 782 783 784 790 791 797 806 804 805 795 788 790 782 778 780 780 780 781 780 774 776 775 775 778 777 778 771 766 769 766 766 767 764 766 772 776 778 781 784 787 791 794 796 799 800 803 805 806 807 808 809 810 811 813 813 814 815 816 817 817 818 818 819 819 819 820 820 820 821 821 821 821 821 821 821 821 821 821 821 821 821 821 822 822 822 822 822 822 822 822 822 823 823 824 824 824
780 784 786 789 791 791 802 807 803 802 787 780 783 778 776 778 779 780 784 784 780 777 775 776 773 778 780 769 767 763 759 762 763 765 768 771 776 779 782 785 788 791 794 797 799 801 804 805 806 808 808 809 810 812 813 814 815 816 816 817 818 818 819 819 819 820 820 820 820 821 821 821 821 822 821 821 821 821 821 821 821 821 821 821 821 822 821 822 822 822 822 822 823 823 823 824 824
780 785 787 793 798 796 803 803 798 795 784 777 776 774 774 777 779 781 784 783 783 780 776 775 771 780 779 769 773 765 759 763 762 767 769 772 776 779 783 785 788 792 795 797 800 802 804 805 807 808 808 809 810 812 813 814 815 816 817 817 818 818 819 819 820 820 820 820 821 821 822 822 822 822 822 822 821 821 821 821 821 821 821 821 821 821 821 821 821 822 822 822 822 823 823 823 824
779 785 789 795 800 801 802 800 794 787 780 777 773 772 772 776 778 778 780 779 778 777 776 773 771 780 778 771 773 764 761 764 765 769 771 774 777 780 784 786 789 792 795 798 800 803 804 806 807 808 809 809 811 812 813 815 815 816 817 817 818 818 819 819 820 820 820 821 821 822 822 822 822 822 822 821 821 821 821 821 821 821 821 821 821 821 821 821 822 822 822 822 822 823 823 823 823
781 785 790 796 800 804 804 798 791 783 778 775 773 772 772 775 777 775 775 776 775 775 774 770 771 777 776 773 772 765 763 763 767 772 773 776 778 782 786 788 790 791 795 798 801 803 805 807 807 809 809 810 811 812 814 815 816 816 817 818 818 819 819 820 820 821 821 821 821 822 822 822 822 821 822 821 821 821 821 821 821 821 821 821 821 821 821 821 822 822 822 822 822 822 822 823 823
788 788 788 798 803 806 804 797 790 781 776 774 774 772 772 774 778 775 773 775 773 774 773 771 774 775 773 773 772 766 763 763 767 773 775 778 781 784 787 790 792 792 794 797 801 804 805 807 808 809 809 810 811 812 814 815 816 816 817 818 818 819 819 820 820 821 821 821 821 821 821 821 821 821 821 821 821 821 821 821 821 821 821 821 821 821 821 821 821 821 821 821 822 822 822 822 822
792 792 791 802 805 803 798 796 791 781 776 776 777 773 771 774 778 776 774 775 772 774 773 771 772 770 775 777 774 768 765 767 768 773 777 779 783 785 788 790 792 794 796 798 801 804 806 807 809 809 810 811 812 813 814 815 816 816 817 818 819 819 819 820 820 821 821 821 821 821 821 821 821 821 821 821 821 821 821 820 820 820 820 821 821 821 821 821 821 820 821 821 821 821 822 822 822
788 791 795 802 797 796 794 793 789 783 780 774 774 772 770 775 778 775 774 774 773 776 773 767 766 766 775 778 773 770 769 770 770 775 778 781 784 786 789 791 793 796 797 799 802 804 806 807 808 809 810 811 812 813 814 815 816 816 817 818 819 819 820 820 820 821 820 821 821 821 821 821 821 821 821 821 821 821 820 820 820 820 820 820 820 820 820 820 820 820 820 820 821 821 821 822 822
783 785 793 799 793 792 791 790 786 786 784 772 771 771 770 773 774 773 773 776 775 773 768 762 763 770 774 775 777 774 771 770 771 775 778 782 784 786 790 792 794 796 798 800 802 804 805 807 808 809 810 811 812 813 814 815 815 816 817 817 819 819 820 820 820 821 820 820 821 821 821 821 821 820 820 820 820 820 820 820 819 819 819 819 819 819 819 819 819 819 819 820 820 820 820 821 821
781 783 789 797 796 793 789 787 785 787 783 772 774 771 770 770 768 771 772 775 775 766 764 762 763 772 773 774 779 773 769 770 772 776 778 782 784 788 791 792 795 797 799 800 802 804 805 807 808 809 810 811 812 812 813 814 815 816 816 817 818 819 820 820 820 820 820 820 821 821 821 821 821 820 820 820 819 819 819 819 818 819 818 818 818 818 818 818 818 818 819 819 819 819 819 819 820
779 782 792 798 797 795 788 784 784 786 780 772 773 770 772 771 766 771 768 768 772 765 765 768 764 767 767 768 771 766 767 771 772 776 779 783 786 789 792 793 796 798 800 801 802 804 805 807 807 809 809 810 811 812 813 814 815 816 816 817 818 819 819 820 820 820 820 820 821 821 821 821 820 820 820 819 819 819 818 818 818 818 818 818 818 818 818 818 818 818 818 818 818 818 818 818 818
779 785 796 798 795 794 788 784 784 784 778 773 773 770 774 775 769 768 764 765 771 770 768 767 762 761 762 762 763 763 768 771 773 777 780 784 787 790 793 795 797 799 801 801 802 803 805 806 807 808 809 810 811 811 813 813 815 815 816 817 817 818 819 819 819 819 819 820 820 820 820 820 820 819 819 819 818 818 818 818 818 818 817 817 817 817 817 817 817 817 817 817 817 817 817 817 817
783 790 797 796 793 790 785 781 780 778 777 776 775 772 773 775 774 770 769 771 771 772 770 765 762 759 757 759 761 764 769 771 774 777 780 784 787 790 793 794 796 798 800 801 802 803 804 805 806 807 808 809 810 811 812 812 814 814 815 816 817 817 817 818 818 818 818 819 819 819 820 819 819 819 818 818 818 817 817 817 817 817 817 817 817 817 817 817 816 816 816 817 817 817 816 816 816
785 789 793 791 785 782 778 776 775 775 777 776 774 773 772 773 773 771 776 778 774 775 773 767 766 762 757 758 761 765 768 772 774 777 780 783 785 788 791 793 795 796 798 800 801 803 803 804 805 806 807 808 809 810 811 812 813 813 814 815 815 816 816 816 817 817 817 818 818 818 818 818 818 818 818 818 817 817 817 817 817 817 816 816 816 816 816 816 815 815 815 816 816 816 815 815 815
780 784 791 785 776 776 773 771 772 771 772 773 774 772 772 772 769 770 776 779 777 777 774 770 770 766 761 759 760 764 768 772 775 777 779 782 784 786 789 791 793 794 796 798 800 802 803 803 804 805 806 808 808 809 810 811 812 812 813 813 814 814 815 815 815 816 816 817 817 817 817 817 817 817 817 817 817 817 816 816 816 816 816 815 816 815 815 815 815 815 815 815 815 815 814 814 814
777 779 785 777 771 775 771 769 769 767 768 771 772 772 774 772 768 771 775 780 781 775 769 767 767 764 761 759 760 764 768 771 775 777 778 781 784 785 787 788 790 792 795 797 799 800 802 803 803 804 806 807 807 808 809 810 810 811 812 812 813 813 814 814 814 815 815 815 815 816 816 816 816 816 816 816 816 816 815 816 815 815 815 815 815 814 814 814 814 814 814 814 814 814 814 814 814
776 776 775 770 769 774 769 766 766 764 766 768 771 774 774 772 771 772 775 780 778 768 763 761 762 760 758 758 760 763 767 771 774 776 778 781 783 784 785 787 789 792 794 796 798 799 800 801 802 803 805 806 807 807 808 809 810 810 811 812 812 813 813 813 814 814 814 814 814 814 815 815 815 815 815 815 815 815 815 815 814 814 814 814 814 814 813 814 813 813 813 813 813 814 813 813 813
775 775 770 768 768 770 767 766 765 763 766 769 771 772 771 774 775 772 774 774 767 760 757 758 759 758 755 756 760 764 767 769 772 774 777 779 781 783 784 786 788 790 793 794 796 798 799 800 801 802 803 805 806 807 808 809 809 810 810 811 812 812 812 813 813 813 813 813 813 813 813 814 814 814 814 813 813 814 814 814 814 814 814 813 813 813 813 813 813 812 812 812 813 813 813 812 812
772 775 770 769 767 766 766 766 766 764 767 768 766 770 774 777 775 772 772 767 760 757 754 755 758 756 755 758 762 765 767 768 771 774 776 778 780 781 782 785 787 788 791 793 794 796 797 799 800 801 803 804 805 806 807 808 808 809 810 810 811 811 812 812 812 812 813 813 812 812 812 813 813 813 813 812 812 812 812 813 813 813 813 812 812 812 812 811 812 812 812 811 811 812 811 811 811
771 770 768 769 768 764 764 767 769 769 770 768 767 773 776 773 771 772 771 763 758 756 754 755 757 757 758 761 763 765 767 768 770 773 775 777 778 780 782 784 786 787 789 791 793 794 796 798 799 800 801 802 804 805 806 807 807 808 809 809 810 810 811 811 812 812 812 812 812 812 812 812 812 812 812 811 812 811 811 812 812 812 812 811 811 811 810 810 811 811 810 810 810 810 810 810 810
765 764 766 770 771 765 765 767 770 773 772 771 773 776 774 768 769 772 766 760 757 754 755 757 757 760 761 763 764 765 767 769 770 772 774 776 777 779 781 783 785 786 788 789 791 793 795 796 798 799 800 801 802 803 804 805 806 807 807 808 809 809 809 810 811 811 811 811 811 811 811 811 811 811 811 811 811 811 810 811 810 810 810 810 809 809 809 810 810 809 809 808 808 809 809 808 808
759 762 765 772 776 769 766 768 770 774 773 774 777 778 774 767 772 775 764 757 756 756 758 757 758 762 762 764 764 764 767 768 769 771 773 775 776 778 780 782 783 784 786 788 790 791 793 795 796 798 799 800 801 802 803 804 805 805 806 806 807 808 808 809 809 810 810 810 810 810 810 810 811 810 810 810 810 810 810 810 809 809 809 809 808 808 809 809 808 808 807 807 807 807 807 807 807
757 763 768 776 781 778 775 773 771 774 774 774 774 776 774 771 774 773 762 756 755 758 761 759 760 762 762 764 765 764 766 767 768 770 772 773 774 776 778 779 781 783 784 786 788 790 792 793 795 796 797 799 800 801 802 803 803 804 804 805 805 806 807 807 808 808 809 809 809 809 809 809 809 810 809 809 810 809 809 809 809 808 808 808 808 807 808 808 808 807 807 806 806 806 806 806 806
759 761 771 780 779 781 782 776 772 773 775 771 771 780 782 777 774 767 759 756 755 758 761 760 761 761 762 764 765 765 765 765 767 768 769 771 773 774 776 778 779 781 782 784 787 788 790 791 793 794 796 797 798 799 800 802 802 803 803 804 804 805 805 806 806 807 807 807 808 808 808 808 808 808 808 808 809 809 808 809 808 808 808 807 807 807 807 807 807 807 806 806 806 805 805 805 805
762 763 772 782 784 782 777 774 773 773 772 766 772 789 790 779 771 762 757 756 757 760 761 761 762 761 762 763 765 765 763 764 764 766 768 769 772 773 774 776 777 779 781 783 785 786 788 789 791 793 794 795 797 798 799 800 801 802 802 803 803 803 804 805 805 805 806 806 806 806 806 806 806 806 806 807 807 807 807 807 807 807 807 807 807 806 806 806 806 806 805 805 805 804 804 804 804
766 773 776 782 790 786 773 771 774 774 772 765 775 791 788 776 769 761 756 756 759 763 763 762 763 762 763 763 764 765 762 762 762 764 766 768 770 771 772 774 775 777 779 781 782 784 786 788 789 791 792 794 795 797 798 799 800 800 801 801 802 803 803 804 804 804 804 804 804 804 804 804 804 804 805 805 806 806 806 806 806 806 806 806 805 805 805 805 805 804 804 804 804 803 803 803 803
767 781 787 782 783 784 776 770 770 774 772 767 777 789 784 774 767 760 756 757 759 764 764 762 763 763 763 763 763 764 762 761 760 762 764 766 767 768 770 772 773 775 776 778 780 782 785 786 788 789 790 792 793 795 796 797 798 798 799 800 800 801 802 802 803 803 803 803 803 802 802 802 802 803 804 804 804 804 804 804 804 804 805 805 804 804 804 803 803 803 803 803 802 802 802 802 801
771 778 789 783 780 785 780 772 767 769 773 773 779 785 782 773 765 759 756 757 760 763 765 763 764 764 762 762 762 762 763 762 760 760 762 763 765 766 768 770 772 773 774 776 778 780 783 784 786 787 788 790 791 792 793 794 796 797 798 798 799 800 800 801 801 801 801 801 801 801 801 801 801 801 802 802 802 802 802 803 803 803 803 803 803 803 803 802 802 802 802 802 801 801 801 801 800
780 779 783 779 778 783 781 775 768 766 773 776 779 781 777 769 763 760 757 757 761 764 765 764 764 764 761 761 762 762 763 763 761 758 759 761 763 764 766 768 769 771 773 774 775 778 780 782 784 785 786 787 789 790 791 792 793 795 796 797 797 798 798 799 799 799 800 800 800 800 799 799 799 799 799 800 801 801 801 801 802 802 802 802 802 802 802 802 802 801 801 801 801 801 800 800 799
781 782 783 780 777 780 778 774 767 766 772 775 780 783 774 767 763 761 758 756 761 763 763 764 763 763 762 761 763 763 762 762 759 756 757 759 761 763 764 766 768 769 771 772 773 775 777 779 780 781 783 784 786 787 788 790 791 793 794 795 795 796 796 797 797 798 798 799 799 798 798 797 797 797 797 798 799 799 800 800 800 801 801 801 801 801 801 801 801 801 801 800 800 800 800 799 799
772 771 773 777 777 777 771 765 761 762 772 775 778 780 773 769 766 762 759 756 760 762 761 763 763 763 762 761 762 762 762 760 755 755 757 758 759 760 762 764 766 767 768 769 771 772 773 775 776 778 780 781 783 785 787 789 790 791 792 793 793 794 795 795 796 796 797 798 797 797 796 796 796 796 796 796 797 798 798 799 799 800 800 799 799 799 800 800 800 800 800 800 799 799 799 799 798
762 761 763 767 770 773 763 759 757 755 768 774 771 773 771 768 766 761 759 758 761 763 762 763 763 763 762 761 761 761 760 757 753 754 756 756 757 758 759 762 763 765 766 767 768 769 770 771 773 774 776 778 781 782 785 786 787 789 790 791 791 792 793 793 794 795 795 796 796 795 795 795 795 795 795 795 795 796 797 797 798 798 798 798 798 798 799 799 799 799 798 798 798 798 798 798 798
757 757 760 763 765 765 755 754 756 752 763 770 766 770 771 766 764 760 758 761 762 761 762 763 762 762 761 760 760 760 758 755 753 754 754 755 756 756 757 759 761 762 763 764 766 767 768 769 770 771 773 776 778 780 782 783 785 786 786 787 788 789 790 791 792 792 793 793 794 794 793 793 793 793 794 794 794 795 795 796 796 796 797 797 797 797 797 797 797 797 797 797 797 797 797 797 798
754 754 759 766 762 759 756 753 755 754 761 767 764 770 771 764 762 760 757 759 759 757 757 758 759 761 761 760 759 758 758 757 755 754 753 754 754 754 755 756 758 759 760 761 763 765 766 767 768 769 771 773 775 777 779 780 782 783 783 784 786 787 788 789 790 790 791 791 791 792 792 792 792 792 793 793 793 793 794 794 795 795 795 796 796 796 796 796 796 796 796 796 796 796 796 796 796
752 752 759 766 756 757 764 760 758 756 756 762 764 768 770 766 764 761 758 756 756 755 754 753 754 757 758 757 756 756 757 757 755 753 752 752 752 752 753 753 754 756 758 759 761 763 765 766 767 768 770 771 773 775 777 778 780 781 782 783 785 786 787 787 788 788 789 789 789 790 790 791 791 791 792 792 792 792 793 793 793 794 794 794 794 794 794 794 794 795 795 795 795 795 794 794 795
750 747 754 760 751 750 756 754 755 756 756 756 762 776 776 769 771 767 759 758 758 756 755 755 753 753 754 754 754 754 754 753 754 753 751 751 751 750 751 751 752 754 756 758 759 760 762 764 766 767 768 769 771 773 775 777 779 781 782 783 784 785 786 786 786 786 786 787 787 787 788 789 790 790 790 790 791 791 791 792 792 792 792 792 792 792 792 792 792 793 793 793 793 793 793 792 792
750 743 742 745 744 744 748 751 757 769 773 758 760 787 788 769 770 770 762 762 762 758 758 757 754 752 753 754 754 752 751 750 750 750 749 749 749 748 749 749 750 752 753 756 757 758 759 762 764 765 766 768 770 771 774 776 777 779 780 781 781 782 783 783 783 783 784 784 785 785 786 787 788 788 789 789 789 789 789 790 790 790 790 790 790 790 790 790 790 791 791 791 791 792 791 791 790
754 739 727 730 737 744 749 752 760 775 776 754 750 777 787 776 770 765 763 765 763 760 759 756 754 753 752 752 751 751 750 749 749 748 747 747 747 747 747 747 748 750 752 754 756 756 757 760 762 764 765 767 769 771 773 775 776 777 777 778 778 779 779 779 779 780 781 782 783 784 785 786 786 786 787 787 787 787 788 788 788 788 789 789 789 788 788 788 788 788 789 789 789 790 790 789 788
748 728 720 731 742 750 751 751 757 762 759 754 751 759 776 780 768 757 759 766 766 763 760 755 752 751 750 748 747 747 748 747 747 747 746 745 745 744 745 746 747 749 751 753 754 756 757 758 761 763 765 766 768 770 772 773 774 774 775 776 776 776 776 776 777 778 779 781 782 782 783 784 784 784 785 785 785 786 786 786 786 786 786 787 787 786 786 786 786 786 787 787 787 787 788 787 787
732 717 722 732 738 743 744 748 755 753 760 774 766 756 775 780 760 751 758 766 768 763 757 753 749 747 747 746 744 743 743 742 743 744 743 742 742 743 744 745 747 748 749 751 752 754 756 757 760 761 763 765 767 768 770 771 771 772 773 774 774 775 775 775 776 777 778 779 780 780 781 781 782 782 783 783 783 783 783 784 784 784 784 784 784 784 784 784 784 784 784 785 785 785 785 785 785
717 712 724 731 733 736 740 748 753 756 772 785 769 757 774 778 758 755 764 766 764 757 750 747 744 743 743 742 741 740 740 740 739 740 740 739 740 741 743 744 746 747 748 750 751 753 755 757 758 760 761 763 764 766 767 768 770 771 771 772 772 773 774 774 775 776 777 777 778 778 779 779 780 780 781 781 781 781 782 782 782 782 782 782 782 782 782 782 782 782 782 782 783 783 783 783 783
710 715 726 733 735 736 744 748 749 770 786 778 762 753 762 773 762 755 756 749 743 745 746 744 741 740 740 738 738 737 737 737 737 737 737 737 739 740 742 743 744 746 747 748 750 751 753 755 757 758 760 761 762 763 765 766 768 769 769 770 771 771 772 773 774 774 775 775 776 776 777 777 778 778 779 779 779 779 780 780 780 780 780 780 780 780 780 780 780 780 780 780 781 781 781 781 781
713 723 730 740 743 741 755 758 757 785 793 765 751 748 756 771 761 744 737 726 724 733 738 739 738 737 736 735 734 733 734 734 734 736 736 737 739 740 741 742 742 744 745 746 748 750 752 753 755 756 757 759 760 761 763 764 765 766 767 768 769 769 770 771 771 772 773 773 774 774 775 775 775 776 777 776 777 777 777 777 778 778 778 778 778 778 778 778 778 778 778 778 778 778 778 778 778
719 727 736 753 761 760 775 780 775 784 774 746 741 749 759 762 742 728 726 721 720 723 724 728 730 731 731 731 731 730 730 731 732 733 735 736 737 738 738 740 741 742 743 745 747 748 750 751 752 753 754 756 757 759 760 762 763 764 765 766 767 768 769 769 769 770 770 771 771 772 773 773 773 774 774 774 774 774 775 775 776 776 776 776 776 776 776 776 776 777 777 776 776 776 776 776 776
724 731 739 757 768 775 786 784 778 776 756 735 734 747 760 752 728 716 716 713 712 712 714 718 718 721 725 724 725 726 727 728 729 730 732 733 734 734 735 736 738 739 740 742 744 746 748 749 750 750 751 753 755 756 758 759 760 762 763 764 765 766 767 767 768 768 768 769 769 770 771 771 772 772 772 772 772 772 772 773 773 774 774 774 774 774 774 774 774 774 774 774 774 774 774 774 773
721 718 728 746 753 764 775 771 769 767 752 739 739 749 756 745 721 704 700 702 704 706 709 711 713 715 718 721 723 724 725 725 726 727 728 729 730 730 731 733 735 736 738 740 742 744 745 746 747 748 749 750 752 754 755 757 758 760 761 762 763 764 765 765 766 766 766 767 767 768 769 769 769 770 770 770 770 770 770 771 771 771 771 772 772 772 772 772 772 772 772 772 772 772 771 771 771
718 709 725 739 732 736 750 750 747 747 749 748 745 743 735 721 705 692 693 701 703 706 709 712 716 716 718 723 723 723 724 723 724 725 726 726 726 727 728 729 731 733 735 737 739 740 742 743 744 745 746 747 749 751 753 754 756 758 759 760 761 762 764 764 765 765 765 765 766 766 767 767 768 768 768 768 768 768 768 768 768 768 768 769 769 769 770 770 770 770 770 770 770 770 770 769 769
718 718 728 722 707 715 738 746 736 737 754 754 741 738 728 716 708 696 697 706 707 709 712 714 717 716 720 723 722 721 722 721 721 721 722 723 723 724 725 726 728 729 732 733 735 736 738 739 741 742 744 746 748 749 751 752 754 756 757 758 760 761 762 763 763 763 764 764 765 765 766 766 766 767 766 766 766 766 766 766 766 766 766 766 767 767 767 767 767 767 767 768 768 768 768 767 767
716 726 718 704 705 713 729 748 749 750 764 755 739 742 738 733 727 711 706 712 712 712 713 714 716 717 720 721 718 719 717 717 717 716 718 720 720 721 722 723 724 725 727 729 731 733 735 737 739 741 743 744 746 748 749 751 752 754 755 756 758 759 760 761 761 762 763 764 764 764 764 765 765 765 765 765 765 764 764 764 764 764 764 764 765 765 765 765 765 765 765 765 765 766 766 765 765
700 708 698 706 731 736 733 747 755 760 768 758 746 744 738 734 728 717 716 716 712 713 713 715 718 717 718 718 716 716 715 715 716 715 717 717 717 718 718 720 721 722 725 727 729 732 733 736 737 739 741 742 745 746 747 749 750 752 753 754 756 757 758 759 760 761 762 762 762 762 763 763 763 763 763 763 763 763 762 762 762 762 762 762 762 763 763 763 763 763 763 763 763 763 763 763 763
692 697 698 705 723 732 732 735 738 747 759 759 756 751 738 724 712 709 713 710 707 712 714 715 716 713 714 715 714 714 713 714 714 714 714 714 714 715 715 717 719 720 723 725 728 730 731 734 736 737 739 740 742 744 745 747 748 750 751 752 754 755 756 758 759 760 760 761 761 761 761 761 761 761 761 761 761 760 760 760 760 760 759 760 760 761 761 761 761 761 761 761 760 760 760 760 760
706 712 717 715 713 717 723 724 722 730 745 754 760 758 736 709 697 699 702 701 701 705 709 712 711 708 709 709 709 710 710 710 711 711 711 711 711 712 713 716 717 719 723 724 726 728 729 732 734 735 737 738 740 742 743 745 746 747 749 749 751 752 754 756 757 758 759 759 760 760 760 760 759 759 759 759 759 758 758 758 757 757 757 757 758 758 759 759 758 758 758 758 758 758 757 757 757
704 711 715 716 716 720 734 739 725 718 730 739 747 755 733 698 688 692 693 696 699 699 703 708 706 704 705 704 704 706 706 707 708 708 708 709 709 711 713 716 718 720 721 723 725 727 728 730 732 734 735 736 738 740 741 743 744 745 746 747 748 750 751 754 756 758 759 759 760 760 760 761 762 761 760 758 757 757 757 756 755 755 755 756 756 756 756 756 756 756 755 755 755 755 755 755 754